Wind_Speed
38 37 38 35 35 34 33 31 31 33 34 34 33 32 28 27 26 25 24 25 25 26 28 29 30 31 32 32 31 30 32 31 31 29 30 31 27 24 20 17 16 13 11
38 38 37 33 35 35 35 36 35 38 36 35 33 34 31 29 26 27 26 25 26 28 29 28 29 30 30 29 29 27 31 31 31 31 30 32 32 27 24 19 16 15 15
37 37 36 35 35 37 36 39 36 37 37 35 35 35 34 32 28 26 25 23 23 27 27 24 25 26 26 28 28 25 28 30 30 32 29 30 25 26 25 21 18 17 17
37 34 36 36 38 39 37 36 38 37 36 36 36 31 29 29 28 26 24 22 18 24 24 22 23 26 26 26 28 25 25 30 31 32 32 23 30 26 25 21 19 18 23
38 34 37 37 36 42 43 35 36 36 37 37 32 27 26 28 27 27 27 25 22 22 24 24 21 23 26 29 29 24 26 30 31 33 32 32 33 30 26 21 21 24 25
35 33 36 35 36 39 37 38 36 35 36 34 30 28 28 27 28 25 27 29 24 23 23 24 24 24 26 29 30 26 23 27 31 33 32 31 29 27 26 24 20 20 22
33 35 33 35 33 33 35 34 33 35 33 31 30 30 29 28 30 28 27 28 26 25 25 23 25 25 27 30 30 27 27 28 31 33 32 31 30 28 25 25 25 21 24
35 34 35 33 36 37 32 31 32 33 31 30 29 31 29 29 29 29 27 26 27 25 25 24 25 25 25 30 30 28 26 27 31 33 30 31 31 29 29 24 23 26 24
32 36 31 35 37 31 30 31 31 30 29 29 30 32 28 27 26 25 23 25 25 23 25 25 23 23 22 29 31 29 28 28 30 31 29 29 30 29 31 28 26 28 32
32 29 33 35 30 28 30 29 27 27 26 27 29 26 26 24 20 21 25 24 26 24 22 22 22 23 22 25 32 30 28 28 28 29 28 30 29 30 28 28 28 23 23
28 29 32 27 27 29 29 24 25 24 23 26 22 22 20 15 17 22 21 24 26 21 23 21 22 23 23 23 27 30 30 28 27 27 27 28 28 28 30 28 29 30 24
28 29 25 25 27 27 24 22 23 20 25 23 17 17 11 7 9 15 21 12 26 21 21 20 21 21 21 24 22 24 30 29 27 26 25 27 29 28 29 29 27 26 24
23 23 24 26 24 21 21 20 20 18 21 19 14 11 6 4 7 11 15 16 21 20 21 21 20 20 19 22 24 24 26 26 26 27 24 24 28 29 28 25 26 29 21
19 21 23 20 19 19 18 17 16 18 18 15 10 7 4 2 5 11 12 18 20 23 23 23 21 19 20 20 22 22 24 26 26 24 24 25 29 29 25 23 20 21 22
17 19 18 17 17 17 15 12 13 17 14 12 7 3 3 5 8 13 12 14 18 19 19 19 21 20 19 21 19 24 25 24 26 25 24 24 27 23 21 20 18 21 19
16 14 14 15 15 13 10 10 12 14 11 8 6 0 5 7 6 10 11 13 15 17 18 18 21 22 21 22 24 23 23 21 21 23 22 23 21 21 21 19 18 19 19
11 9 11 11 9 10 8 9 10 10 8 5 4 4 6 8 9 10 9 14 13 17 19 18 18 21 23 23 23 23 24 22 20 21 19 17 19 20 18 17 14 17 17
7 8 9 7 7 7 7 9 10 10 6 4 3 4 6 6 8 10 9 14 13 15 15 17 17 19 22 22 21 21 21 21 24 23 17 18 16 18 21 17 16 16 16
8 8 6 5 7 8 9 6 6 6 5 4 5 5 4 6 8 11 12 13 13 14 15 18 18 18 20 18 20 22 24 24 24 27 17 19 18 14 11 12 12 17 18
7 7 7 6 5 8 7 4 6 5 4 5 5 6 7 8 11 13 12 13 14 15 17 19 19 20 21 20 20 21 24 25 29 26 20 16 15 18 12 17 12 7 4
6 6 6 3 4 8 3 4 6 6 2 1 5 7 6 11 15 15 14 16 17 15 19 17 18 20 22 21 21 21 21 25 24 25 14 20 14 15 11 10 11 12 11
5 6 6 2 4 2 2 2 2 2 2 5 4 4 8 12 12 13 15 16 17 16 18 20 25 21 24 23 19 22 22 25 19 15 15 16 13 14 11 13 15 12 10
6 7 7 3 5 1 3 3 4 6 6 7 8 6 7 11 13 15 15 17 16 16 14 17 25 22 22 23 25 21 20 23 20 12 19 15 14 17 18 16 13 8 7
6 7 7 3 3 2 1 3 4 3 3 4 3 3 4 8 13 16 17 16 14 12 15 18 15 20 20 24 27 24 14 15 21 19 18 18 21 19 16 12 9 6 3
6 8 7 3 2 3 4 8 4 6 8 13 13 10 6 12 14 18 19 18 15 14 15 19 23 18 23 22 24 20 25 25 22 21 19 19 17 15 12 9 7 5 3
9 10 8 2 10 10 11 9 10 10 11 11 18 22 18 16 17 17 19 19 17 17 16 16 19 24 24 30 32 31 27 24 26 23 19 17 14 11 8 6 5 2 5
Wind_Direction
293 294 292 296 295 299 300 308 309 315 313 312 308 302 297 289 281 277 278 271 262 252 247 243 243 238 236 236 235 235 230 224 220 224 225 225 218 217 212 215 222 229 215
294 289 286 291 289 289 293 297 305 310 311 310 306 302 299 291 280 271 266 274 273 248 246 243 241 237 231 233 232 233 229 223 218 218 220 223 224 216 214 212 218 222 231
292 286 282 285 283 282 284 296 297 308 308 307 306 303 299 290 278 268 259 265 276 235 240 240 240 235 230 231 225 224 227 221 218 218 213 225 225 223 214 208 208 222 229
285 282 284 285 285 288 288 290 301 303 305 305 305 304 299 293 282 262 256 250 252 238 239 236 233 229 224 220 222 217 223 222 215 215 202 208 220 202 214 212 211 216 224
290 283 286 288 292 293 301 299 303 304 304 303 302 296 294 292 285 268 253 244 239 241 239 232 233 227 222 219 218 223 220 219 214 212 208 208 208 211 209 213 214 219 232
282 277 281 289 290 294 298 300 300 302 301 298 297 294 291 285 284 274 252 244 235 236 236 229 228 229 222 219 216 216 222 218 213 208 207 208 208 213 211 214 217 232 235
272 273 287 288 293 299 296 295 300 300 297 297 300 296 291 281 274 269 249 241 233 230 229 229 228 228 224 217 215 214 221 216 212 209 206 207 208 210 211 213 217 229 243
267 275 288 290 294 296 294 298 302 297 298 299 295 295 292 285 272 260 246 236 227 222 223 224 223 221 223 215 215 214 216 214 212 210 204 206 206 205 210 222 224 226 237
271 280 284 287 292 291 296 302 298 295 296 297 296 298 292 283 267 250 232 222 217 215 216 223 227 220 217 213 209 208 209 213 211 210 206 204 207 212 211 219 221 230 237
274 278 284 288 288 294 299 299 295 293 296 300 301 299 293 280 253 230 211 211 202 205 212 214 218 215 215 213 205 205 208 209 209 210 208 209 207 214 217 224 224 248 244
271 281 283 285 292 296 297 293 292 298 301 305 306 306 302 279 249 219 214 202 196 199 208 206 212 210 211 209 204 206 208 209 210 210 212 217 216 218 222 226 224 231 253
278 282 286 289 292 292 288 289 296 299 306 310 310 315 309 290 228 219 220 201 187 193 199 200 204 206 203 204 200 204 208 210 209 213 212 218 221 222 226 229 231 244 248
282 283 285 288 289 284 286 293 294 299 313 320 319 325 295 260 210 205 209 205 190 190 200 187 196 201 197 200 200 201 204 206 210 212 215 223 221 221 225 234 239 249 273
277 283 286 290 286 286 289 288 291 304 312 315 319 329 279 175 190 184 190 190 188 193 201 195 187 190 194 193 196 194 201 204 206 208 216 217 213 215 221 230 238 239 252
286 285 287 285 290 286 283 293 299 308 310 307 314 327 205 145 154 171 172 168 178 183 186 186 188 185 188 192 192 193 197 202 206 208 214 217 215 210 214 218 232 242 258
281 281 291 282 282 283 285 300 309 309 303 317 326 192 159 160 140 180 176 174 181 181 177 184 188 186 187 186 191 193 192 196 200 199 203 215 197 196 212 217 230 255 266
265 295 283 279 280 274 287 306 310 309 302 291 311 194 160 172 187 168 165 180 177 182 181 184 186 184 188 188 193 199 203 205 189 200 203 193 199 208 218 223 244 253 259
266 284 271 267 283 295 292 298 295 302 300 278 281 226 211 181 171 174 148 158 160 165 174 182 184 187 194 193 192 195 188 190 197 200 204 205 206 210 226 233 250 256 257
255 285 253 272 293 291 304 314 312 306 292 250 228 206 163 170 173 173 178 166 172 179 179 178 183 185 185 185 190 191 193 186 187 197 168 192 221 233 228 240 251 249 257
252 271 237 273 303 334 319 335 341 342 245 242 224 201 184 167 169 173 164 164 166 165 168 174 178 182 179 186 184 185 191 186 189 190 187 208 216 222 254 234 245 189 215
245 246 222 279 312 331 345 6 345 342 346 184 157 175 165 179 180 175 173 166 167 157 165 165 169 166 177 169 162 155 152 174 184 194 199 205 244 245 231 173 161 113 92
233 224 199 241 327 353 11 354 11 11 111 146 137 158 177 176 191 188 173 171 160 145 146 154 151 160 170 162 158 161 162 158 170 189 199 199 165 150 155 104 104 122 123
214 201 204 231 339 205 19 55 64 120 131 127 129 136 166 178 172 174 173 170 156 146 142 150 152 149 160 174 165 161 170 188 192 166 146 141 141 117 120 125 121 101 69
194 186 187 201 345 190 17 78 84 147 129 126 117 141 190 190 179 170 163 158 169 161 167 173 178 163 154 152 162 171 175 170 148 136 132 123 134 130 120 115 109 90 73
183 170 172 197 280 176 116 97 105 105 117 107 69 81 135 148 141 151 154 156 153 159 170 172 171 171 155 156 159 151 141 136 133 129 144 138 127 123 124 114 96 89 44
176 161 170 31 148 120 98 109 111 113 116 108 91 91 100 126 152 151 145 145 143 154 145 147 157 163 163 152 146 147 146 140 146 148 142 132 130 128 127 118 104 38 359
Height
5806 5802 5800 5798 5795 5792 5790 5787 5784 5781 5779 5775 5772 5769 5768 5766 5766 5765 5765 5765 5765 5766 5767 5770 5774 5778 5783 5788 5793 5798 5803 5807 5811 5815 5818 5823 5827 5830 5833 5836 5839 5840 5841
5800 5797 5793 5792 5790 5786 5784 5781 5778 5775 5772 5769 5765 5761 5759 5758 5758 5758 5759 5759 5759 5760 5762 5764 5768 5772 5777 5782 5787 5792 5796 5801 5806 5809 5815 5819 5823 5826 5829 5831 5835 5837 5838
5793 5790 5788 5785 5781 5777 5776 5775 5772 5768 5765 5761 5758 5754 5752 5750 5750 5750 5751 5752 5752 5753 5756 5759 5762 5767 5772 5777 5781 5786 5791 5796 5800 5804 5811 5818 5822 5825 5826 5828 5830 5833 5835
5784 5782 5781 5778 5774 5769 5769 5768 5764 5761 5757 5753 5751 5748 5745 5742 5742 5742 5744 5746 5747 5749 5752 5755 5758 5762 5767 5772 5777 5781 5785 5790 5795 5800 5805 5797 5810 5806 5821 5824 5826 5829 5832
5778 5776 5774 5771 5769 5766 5763 5761 5757 5753 5750 5746 5744 5742 5739 5736 5735 5735 5736 5738 5741 5744 5747 5751 5753 5757 5762 5767 5772 5777 5781 5785 5790 5794 5799 5806 5811 5814 5816 5819 5824 5826 5829
5770 5769 5767 5765 5763 5760 5756 5753 5750 5746 5742 5738 5737 5734 5732 5730 5728 5728 5728 5731 5734 5738 5742 5745 5749 5753 5757 5762 5768 5773 5776 5781 5786 5790 5795 5801 5806 5810 5813 5818 5821 5823 5825
5764 5763 5761 5760 5755 5753 5750 5746 5743 5739 5735 5731 5728 5725 5724 5721 5720 5720 5721 5724 5727 5731 5736 5740 5743 5748 5752 5757 5763 5768 5772 5777 5782 5786 5793 5798 5803 5808 5811 5813 5817 5818 5820
5756 5757 5754 5752 5749 5747 5743 5739 5735 5731 5727 5724 5721 5718 5715 5713 5711 5711 5714 5717 5721 5726 5730 5735 5738 5743 5748 5753 5758 5764 5768 5773 5778 5783 5790 5795 5800 5805 5808 5810 5812 5814 5815
5750 5749 5749 5747 5744 5740 5736 5732 5728 5725 5720 5717 5713 5711 5707 5704 5701 5703 5707 5710 5715 5720 5725 5730 5734 5739 5744 5749 5754 5759 5764 5769 5775 5780 5786 5792 5797 5801 5804 5806 5808 5809 5808
5744 5744 5743 5741 5737 5733 5729 5725 5723 5719 5715 5712 5707 5703 5699 5695 5694 5696 5700 5705 5710 5715 5721 5726 5731 5736 5740 5744 5750 5756 5761 5767 5772 5778 5783 5789 5793 5797 5801 5803 5805 5805 5802
5738 5739 5737 5734 5729 5726 5722 5721 5717 5714 5710 5706 5701 5696 5691 5689 5689 5691 5694 5700 5707 5713 5718 5722 5727 5732 5737 5742 5747 5752 5758 5763 5769 5775 5781 5785 5789 5793 5797 5798 5801 5801 5802
5732 5732 5729 5726 5723 5720 5718 5714 5712 5709 5706 5701 5697 5692 5688 5687 5687 5690 5693 5694 5703 5710 5715 5720 5725 5730 5734 5739 5743 5749 5756 5761 5767 5772 5777 5781 5784 5788 5792 5794 5797 5799 5799
5727 5726 5723 5720 5717 5714 5712 5710 5707 5706 5702 5697 5694 5690 5688 5687 5688 5689 5693 5696 5702 5708 5713 5717 5722 5727 5732 5737 5742 5747 5753 5759 5764 5768 5774 5777 5780 5784 5788 5792 5794 5796 5797
5721 5720 5716 5713 5711 5709 5707 5706 5705 5702 5698 5695 5693 5689 5688 5687 5688 5689 5692 5696 5701 5706 5711 5716 5720 5725 5730 5735 5740 5745 5751 5756 5760 5765 5769 5772 5775 5780 5785 5789 5791 5793 5796
5714 5712 5710 5708 5706 5705 5704 5703 5701 5698 5695 5693 5691 5689 5688 5688 5689 5691 5694 5697 5700 5705 5709 5714 5719 5724 5729 5734 5739 5743 5748 5753 5757 5761 5765 5769 5774 5779 5783 5785 5787 5789 5793
5709 5707 5705 5704 5703 5702 5701 5700 5697 5694 5693 5690 5689 5689 5688 5689 5691 5692 5695 5697 5701 5705 5709 5714 5718 5723 5728 5732 5737 5742 5747 5751 5754 5759 5763 5767 5768 5776 5780 5782 5785 5787 5789
5705 5703 5702 5701 5700 5699 5698 5696 5694 5692 5690 5689 5689 5689 5688 5689 5691 5693 5695 5697 5700 5704 5708 5712 5717 5722 5726 5730 5735 5740 5745 5750 5755 5758 5763 5763 5770 5775 5778 5780 5783 5785 5786
5702 5701 5699 5699 5698 5696 5695 5693 5691 5690 5689 5689 5689 5688 5688 5689 5691 5692 5694 5696 5699 5703 5707 5711 5715 5720 5724 5729 5734 5739 5745 5749 5753 5757 5760 5764 5769 5773 5775 5779 5781 5782 5784
5699 5698 5697 5697 5696 5694 5692 5691 5689 5688 5688 5687 5688 5688 5688 5689 5691 5692 5694 5697 5700 5703 5706 5710 5714 5718 5723 5728 5733 5737 5742 5747 5751 5755 5760 5764 5768 5771 5775 5777 5779 5780 5781
5696 5695 5695 5696 5694 5692 5690 5689 5688 5686 5686 5686 5687 5687 5688 5689 5691 5693 5695 5698 5700 5703 5705 5709 5713 5718 5723 5727 5732 5736 5741 5746 5751 5755 5760 5763 5768 5770 5772 5775 5777 5779 5780
5694 5693 5694 5694 5694 5692 5689 5688 5688 5686 5685 5685 5686 5688 5689 5690 5692 5694 5697 5699 5701 5703 5706 5709 5712 5718 5722 5727 5733 5738 5740 5745 5750 5755 5760 5764 5767 5768 5770 5773 5775 5778 5781
5692 5693 5694 5693 5693 5691 5689 5688 5688 5686 5686 5686 5686 5688 5689 5691 5692 5694 5699 5700 5703 5706 5708 5711 5714 5718 5724 5728 5733 5738 5743 5747 5753 5757 5761 5763 5767 5769 5772 5774 5777 5779 5781
5691 5692 5693 5693 5692 5691 5689 5689 5688 5688 5688 5688 5688 5689 5689 5691 5693 5696 5700 5703 5705 5707 5711 5714 5718 5720 5725 5730 5735 5742 5746 5750 5754 5757 5760 5764 5768 5771 5773 5775 5777 5777 5777
5691 5692 5692 5692 5692 5690 5691 5690 5690 5690 5691 5690 5690 5690 5690 5691 5694 5697 5701 5705 5708 5710 5713 5717 5721 5724 5727 5732 5737 5742 5747 5751 5755 5758 5762 5765 5769 5771 5773 5775 5776 5778 5778
5690 5691 5692 5693 5692 5692 5692 5692 5693 5693 5693 5693 5692 5691 5690 5693 5695 5697 5701 5705 5708 5711 5714 5719 5723 5725 5729 5733 5738 5744 5749 5753 5757 5761 5766 5769 5770 5772 5775 5776 5777 5778 5778
5690 5691 5692 5693 5693 5693 5694 5696 5696 5696 5696 5697 5697 5694 5693 5696 5698 5701 5704 5707 5711 5714 5717 5722 5725 5728 5731 5735 5740 5744 5751 5755 5759 5764 5766 5769 5771 5773 5775 5777 5777 5777 5776